Zurück zum Katalog

STARLINK-38185

AktivKommunikationSSO
NORAD 100202·PAYLOAD·🇺🇸 United States

Gestartet Aug 1, 2026 von Vandenberg Space Force Base

Loading…

Nächste Überflüge (nächste 24 Stunden)

TLE

AktuellSource: Space-Track

Epoche: Sep 14, 2026, 12:29 UTC

1 A0202U 26175Z   26257.52031560  .00214290  00000-0  13974-2 0  9993
2 A0202  97.2832  99.6420 0001311 119.3647 240.7749 15.75263227  8230

Verfolge STARLINK-38185 in Echtzeit mit AllMySat

Download on the App Store